Voltar ao catálogo

DELTA 2 DEB

AtivoUNKNOWN
NORAD 25904·DEBRIS·🇺🇸 United States

Lançado Mar 10, 1994 de Cape Canaveral Space Force Station

Loading…

Próximas Passagens (próximas 24 horas)

TLE

AtualizadoSource: Space-Track

Época: Sep 14, 2026, 10:14 UTC

1 25904U 94016D   26257.42700912  .00025947  70029-6  31247-3 0  9998
2 25904  34.4870  30.7445 2074597  27.4694 342.1707 11.39846009902968

Acompanhe DELTA 2 DEB em tempo real com AllMySat

Download on the App Store